Location: Krasnoyarskiy Pitomnik
(51.1333°N, 71.6167°E)
Time: 19:52:58
(UTC+00:00)

Vanguard 2 - Pass Details

Date: 26 April 2024
Orbit: 553 x 2914 km, 32.9° (Epoch: 22 May)

Event Time Altitude Azimuth Distance (km) Brightness Sun altitude
Exits shadow 18:42:07 25° 138° (SE) 4,022 10.7 -24.7°
Drops below altitude 10° 18:52:02 10° 102° (ESE) 5,589 11.7 -24.9°
Sets 18:57:48 0° 92° (E) 6,739 12.3 -24.9°
